Tracking 29892 objects as of 21-Nov-2024
HD Live streaming from Space Station
objects crossing your sky now

COSMOS 2251 DEB

Track COSMOS 2251 DEB now!
10-day predictions


NORAD ID: 40230
Int'l Code: 1993-036BVK
Perigee: 733.2 km
Apogee: 758.6 km
Inclination: 74.0 °
Period: 99.6 minutes
Semi major axis: 7116 km
RCS: Unknown
Launch date: June 16, 1993
Source: Commonwealth of Independent States (former USSR) (CIS)
Launch site: PLESETSK MISSILE AND SPACE COMPLEX (PKMTR)

Note: This is SATELLITE DEBRIS
Your satellite tracking list
Your tracking list is empty




NASA's NSSDC Master Catalog

Two Line Element Set (TLE):
1 40230U 93036BVK 24325.45114762  .00004860  00000-0  13684-2 0  9998
2 40230  74.0468 231.2717 0017881  21.8702  95.8383 14.45995236533665
Source of the keplerian elements: AFSPC